Wetterdaten: Montag / Dienstag, 18.12.2018
Datum Zeit Temp. Aussen Temp. o. S. +5cm Feuchte Auss Luftdruck Regen Sonnenschein Regendauer Solar Windben Empfang
17.12.2018 22:00 5,3 C 4,4 C 3,9 C 96 % 1022,1 hPa 0,0 l/m 0 min 0 min 0 W/m 9,7 km/h (2 Bft) 97,87 %
17.12.2018 22:02 5,3 C 4,4 C 3,9 C 96 % 1022,1 hPa 0,0 l/m 0 min 0 min 0 W/m 9,7 km/h (2 Bft) 95,74 %
17.12.2018 22:04 5,3 C 4,4 C 3,9 C 96 % 1022,1 hPa 0,0 l/m 0 min 0 min 0 W/m 9,7 km/h (2 Bft) 97,83 %
17.12.2018 22:06 5,3 C 4,4 C 3,9 C 95 % 1022,1 hPa 0,0 l/m 0 min 0 min 0 W/m 9,7 km/h (2 Bft) 91,49 %
17.12.2018 22:08 5,3 C 4,4 C 3,9 C 96 % 1022,2 hPa 0,0 l/m 0 min 0 min 0 W/m 6,4 km/h (2 Bft) 97,87 %
17.12.2018 22:10 5,3 C 4,4 C 3,9 C 96 % 1022,2 hPa 0,0 l/m 0 min 0 min 0 W/m 9,7 km/h (2 Bft) 93,62 %
17.12.2018 22:12 5,2 C 4,4 C 3,9 C 96 % 1022,2 hPa 0,0 l/m 0 min 0 min 0 W/m 6,4 km/h (2 Bft) 95,74 %
17.12.2018 22:14 5,2 C 3,9 C 3,3 C 95 % 1022,1 hPa 0,0 l/m 0 min 0 min 0 W/m 6,4 km/h (2 Bft) 100,00 %
17.12.2018 22:16 5,2 C 4,4 C 3,3 C 95 % 1022,2 hPa 0,0 l/m 0 min 0 min 0 W/m 9,7 km/h (2 Bft) 97,87 %
17.12.2018 22:18 5,2 C 3,9 C 3,3 C 95 % 1022,2 hPa 0,0 l/m 0 min 0 min 0 W/m 6,4 km/h (2 Bft) 97,87 %
17.12.2018 22:20 5,1 C 3,9 C 3,3 C 95 % 1022,4 hPa 0,0 l/m 0 min 0 min 0 W/m 6,4 km/h (2 Bft) 95,74 %
17.12.2018 22:22 5,1 C 3,9 C 3,3 C 95 % 1022,3 hPa 0,0 l/m 0 min 0 min 0 W/m 6,4 km/h (2 Bft) 97,87 %
17.12.2018 22:24 5,1 C 3,9 C 3,3 C 95 % 1022,3 hPa 0,0 l/m 0 min 0 min 0 W/m 9,7 km/h (2 Bft) 97,87 %
17.12.2018 22:26 5,0 C 3,9 C 3,3 C 95 % 1022,2 hPa 0,0 l/m 0 min 0 min 0 W/m 6,4 km/h (2 Bft) 97,87 %
17.12.2018 22:28 5,0 C 3,9 C 3,3 C 95 % 1022,2 hPa 0,0 l/m 0 min 0 min 0 W/m 9,7 km/h (2 Bft) 95,65 %
17.12.2018 22:30 4,9 C 3,9 C 3,3 C 95 % 1022,3 hPa 0,0 l/m 0 min 0 min 0 W/m 3,2 km/h (1 Bft) 95,74 %
17.12.2018 22:32 4,9 C 3,9 C 3,3 C 95 % 1022,4 hPa 0,0 l/m 0 min 0 min 0 W/m 3,2 km/h (1 Bft) 93,62 %
17.12.2018 22:34 4,9 C 3,9 C 3,3 C 95 % 1022,4 hPa 0,0 l/m 0 min 0 min 0 W/m 0,0 km/h (0 Bft) 97,87 %
17.12.2018 22:36 4,9 C 3,9 C 2,8 C 95 % 1022,4 hPa 0,0 l/m 0 min 0 min 0 W/m 0,0 km/h (0 Bft) 95,74 %
17.12.2018 22:38 4,8 C 3,9 C 2,8 C 95 % 1022,4 hPa 0,0 l/m 0 min 0 min 0 W/m 0,0 km/h (0 Bft) 93,48 %
17.12.2018 22:40 4,8 C 3,9 C 2,8 C 95 % 1022,3 hPa 0,0 l/m 0 min 0 min 0 W/m 0,0 km/h (0 Bft) 95,74 %
17.12.2018 22:42 4,8 C 3,3 C 2,8 C 95 % 1022,3 hPa 0,0 l/m 0 min 0 min 0 W/m 0,0 km/h (0 Bft) 91,49 %
17.12.2018 22:44 4,7 C 3,3 C 2,8 C 95 % 1022,4 hPa 0,0 l/m 0 min 0 min 0 W/m 0,0 km/h (0 Bft) 93,62 %
17.12.2018 22:46 4,7 C 3,3 C 2,8 C 95 % 1022,4 hPa 0,0 l/m 0 min 0 min 0 W/m 0,0 km/h (0 Bft) 93,62 %
17.12.2018 22:48 4,7 C 3,3 C 2,8 C 95 % 1022,3 hPa 0,0 l/m 0 min 0 min 0 W/m 0,0 km/h (0 Bft) 97,87 %
17.12.2018 22:50 4,6 C 3,3 C 2,8 C 95 % 1022,4 hPa 0,0 l/m 0 min 0 min 0 W/m 0,0 km/h (0 Bft) 97,83 %
17.12.2018 22:52 4,6 C 3,3 C 2,8 C 95 % 1022,4 hPa 0,0 l/m 0 min 0 min 0 W/m 0,0 km/h (0 Bft) 95,74 %
17.12.2018 22:54 4,6 C 3,3 C 2,8 C 95 % 1022,3 hPa 0,0 l/m 0 min 0 min 0 W/m 0,0 km/h (0 Bft) 95,74 %
17.12.2018 22:56 4,5 C 3,3 C 2,8 C 95 % 1022,5 hPa 0,0 l/m 0 min 0 min 0 W/m 0,0 km/h (0 Bft) 97,87 %
17.12.2018 22:58 4,4 C 3,3 C 2,8 C 95 % 1022,5 hPa 0,0 l/m 0 min 0 min 0 W/m 0,0 km/h (0 Bft) 95,74 %
17.12.2018 23:00 4,4 C 3,3 C 2,8 C 95 % 1022,5 hPa 0,0 l/m 0 min 0 min 0 W/m 0,0 km/h (0 Bft) 95,74 %
17.12.2018 23:02 4,4 C 3,3 C 2,8 C 95 % 1022,5 hPa 0,0 l/m 0 min 0 min 0 W/m 0,0 km/h (0 Bft) 97,83 %
17.12.2018 23:04 4,3 C 3,3 C 2,8 C 95 % 1022,5 hPa 0,0 l/m 0 min 0 min 0 W/m 0,0 km/h (0 Bft) 97,87 %
17.12.2018 23:06 4,3 C 3,3 C 2,8 C 95 % 1022,5 hPa 0,0 l/m 0 min 0 min 0 W/m 0,0 km/h (0 Bft) 97,87 %
17.12.2018 23:08 4,3 C 3,3 C 2,8 C 95 % 1022,6 hPa 0,0 l/m 0 min 0 min 0 W/m 9,7 km/h (2 Bft) 97,87 %
17.12.2018 23:10 4,3 C 3,9 C 2,8 C 95 % 1022,6 hPa 0,0 l/m 0 min 0 min 0 W/m 9,7 km/h (2 Bft) 95,74 %
17.12.2018 23:12 4,3 C 3,9 C 2,8 C 95 % 1022,7 hPa 0,0 l/m 0 min 0 min 0 W/m 12,9 km/h (3 Bft) 97,87 %
17.12.2018 23:14 4,3 C 3,9 C 3,3 C 95 % 1022,7 hPa 0,0 l/m 0 min 0 min 0 W/m 9,7 km/h (2 Bft) 95,65 %
17.12.2018 23:16 4,3 C 3,9 C 3,3 C 95 % 1022,7 hPa 0,0 l/m 0 min 0 min 0 W/m 6,4 km/h (2 Bft) 95,74 %
17.12.2018 23:18 4,3 C 3,9 C 3,3 C 95 % 1022,7 hPa 0,0 l/m 0 min 0 min 0 W/m 9,7 km/h (2 Bft) 95,74 %
17.12.2018 23:20 4,3 C 3,9 C 3,3 C 95 % 1022,7 hPa 0,0 l/m 0 min 0 min 0 W/m 6,4 km/h (2 Bft) 95,74 %
17.12.2018 23:22 4,3 C 4,4 C 3,3 C 95 % 1022,7 hPa 0,0 l/m 0 min 0 min 0 W/m 19,3 km/h (3 Bft) 95,74 %
17.12.2018 23:24 4,4 C 4,4 C 3,3 C 96 % 1022,7 hPa 0,0 l/m 0 min 0 min 0 W/m 9,7 km/h (2 Bft) 89,36 %
17.12.2018 23:26 4,4 C 4,4 C 3,3 C 96 % 1022,8 hPa 0,0 l/m 0 min 0 min 0 W/m 12,9 km/h (3 Bft) 95,65 %
17.12.2018 23:28 4,4 C 4,4 C 3,9 C 96 % 1022,7 hPa 0,0 l/m 0 min 0 min 0 W/m 16,1 km/h (3 Bft) 91,49 %
17.12.2018 23:30 4,5 C 4,4 C 3,9 C 96 % 1022,8 hPa 0,0 l/m 0 min 0 min 0 W/m 9,7 km/h (2 Bft) 93,88 %
17.12.2018 23:32 4,6 C 4,4 C 3,9 C 96 % 1022,8 hPa 0,0 l/m 0 min 0 min 0 W/m 6,4 km/h (2 Bft) 95,65 %
17.12.2018 23:34 4,6 C 4,4 C 3,9 C 96 % 1022,7 hPa 0,0 l/m 0 min 0 min 0 W/m 12,9 km/h (3 Bft) 95,74 %
17.12.2018 23:36 4,6 C 4,4 C 3,9 C 96 % 1022,8 hPa 0,0 l/m 0 min 0 min 0 W/m 9,7 km/h (2 Bft) 95,74 %
17.12.2018 23:38 4,6 C 4,4 C 3,9 C 96 % 1022,8 hPa 0,0 l/m 0 min 0 min 0 W/m 6,4 km/h (2 Bft) 97,87 %
17.12.2018 23:40 4,7 C 4,4 C 3,9 C 96 % 1022,9 hPa 0,0 l/m 0 min 0 min 0 W/m 6,4 km/h (2 Bft) 95,74 %
17.12.2018 23:42 4,7 C 4,4 C 3,9 C 96 % 1022,9 hPa 0,0 l/m 0 min 0 min 0 W/m 9,7 km/h (2 Bft) 89,36 %
17.12.2018 23:44 4,7 C 4,4 C 3,9 C 96 % 1022,9 hPa 0,0 l/m 0 min 0 min 0 W/m 9,7 km/h (2 Bft) 95,65 %
17.12.2018 23:46 4,7 C 4,4 C 3,9 C 96 % 1022,9 hPa 0,0 l/m 0 min 0 min 0 W/m 9,7 km/h (2 Bft) 91,49 %
17.12.2018 23:48 4,8 C 4,4 C 3,9 C 96 % 1022,9 hPa 0,0 l/m 0 min 0 min 0 W/m 12,9 km/h (3 Bft) 80,85 %
17.12.2018 23:50 4,8 C 4,4 C 3,9 C 96 % 1022,9 hPa 0,0 l/m 0 min 0 min 0 W/m 12,9 km/h (3 Bft) 78,72 %
17.12.2018 23:52 4,8 C 4,4 C 3,9 C 96 % 1023,0 hPa 0,0 l/m 0 min 0 min 0 W/m 9,7 km/h (2 Bft) 87,23 %
17.12.2018 23:54 4,8 C 4,4 C 3,9 C 96 % 1022,9 hPa 0,0 l/m 0 min 0 min 0 W/m 6,4 km/h (2 Bft) 87,23 %
17.12.2018 23:56 4,8 C 4,4 C 3,9 C 96 % 1022,9 hPa 0,0 l/m 0 min 0 min 0 W/m 9,7 km/h (2 Bft) 80,43 %
17.12.2018 23:58 4,8 C 4,4 C 3,9 C 96 % 1022,9 hPa 0,0 l/m 0 min 0 min 0 W/m 6,4 km/h (2 Bft) 87,23 %
18.12.2018 00:00 4,9 C 4,4 C 3,9 C 96 % 1022,9 hPa 0,0 l/m 0 min 0 min 0 W/m 12,9 km/h (3 Bft) 80,85 %
18.12.2018 00:02 4,9 C 5,0 C 3,9 C 96 % 1022,9 hPa 0,0 l/m 0 min 0 min 0 W/m 9,7 km/h (2 Bft) 78,57 %
18.12.2018 00:04 4,9 C 5,0 C 3,9 C 96 % 1022,8 hPa 0,0 l/m 0 min 0 min 0 W/m 9,7 km/h (2 Bft) 85,11 %
18.12.2018 00:08 4,9 C 4,4 C 3,9 C 96 % 1022,8 hPa 0,0 l/m 0 min 0 min 0 W/m 12,9 km/h (3 Bft) 84,95 %
18.12.2018 00:10 4,9 C 4,4 C 3,9 C 96 % 1022,8 hPa 0,0 l/m 0 min 0 min 0 W/m 12,9 km/h (3 Bft) 91,49 %
18.12.2018 00:12 4,9 C 4,4 C 3,9 C 96 % 1022,8 hPa 0,0 l/m 0 min 0 min 0 W/m 9,7 km/h (2 Bft) 87,23 %
18.12.2018 00:14 4,9 C 4,4 C 3,9 C 96 % 1022,9 hPa 0,0 l/m 0 min 0 min 0 W/m 6,4 km/h (2 Bft) 93,62 %
18.12.2018 00:16 4,9 C 4,4 C 3,9 C 96 % 1022,8 hPa 0,0 l/m 0 min 0 min 0 W/m 9,7 km/h (2 Bft) 100,00 %
18.12.2018 00:18 4,9 C 4,4 C 3,9 C 96 % 1022,8 hPa 0,0 l/m 0 min 0 min 0 W/m 6,4 km/h (2 Bft) 100,00 %
18.12.2018 00:20 4,9 C 4,4 C 3,9 C 96 % 1022,8 hPa 0,0 l/m 0 min 0 min 0 W/m 9,7 km/h (2 Bft) 95,74 %
18.12.2018 00:22 4,9 C 4,4 C 3,9 C 96 % 1022,8 hPa 0,0 l/m 0 min 0 min 0 W/m 6,4 km/h (2 Bft) 89,36 %
18.12.2018 00:24 4,9 C 4,4 C 3,9 C 96 % 1022,8 hPa 0,0 l/m 0 min 0 min 0 W/m 6,4 km/h (2 Bft) 74,47 %
18.12.2018 00:26 4,9 C 4,4 C 3,3 C 96 % 1022,7 hPa 0,0 l/m 0 min 0 min 0 W/m 6,4 km/h (2 Bft) 82,98 %
18.12.2018 00:28 4,9 C 4,4 C 3,3 C 96 % 1022,7 hPa 0,0 l/m 0 min 0 min 0 W/m 9,7 km/h (2 Bft) 82,98 %
18.12.2018 00:30 4,9 C 4,4 C 3,3 C 96 % 1022,7 hPa 0,0 l/m 0 min 0 min 0 W/m 9,7 km/h (2 Bft) 78,26 %
18.12.2018 00:32 4,8 C 4,4 C 3,3 C 96 % 1022,8 hPa 0,0 l/m 0 min 0 min 0 W/m 12,9 km/h (3 Bft) 85,11 %
18.12.2018 00:34 4,8 C 4,4 C 3,3 C 96 % 1022,8 hPa 0,0 l/m 0 min 0 min 0 W/m 9,7 km/h (2 Bft) 85,11 %
18.12.2018 00:36 4,8 C 4,4 C 3,3 C 96 % 1022,8 hPa 0,0 l/m 0 min 0 min 0 W/m 9,7 km/h (2 Bft) 85,11 %
18.12.2018 00:38 4,8 C 4,4 C 3,3 C 96 % 1022,8 hPa 0,0 l/m 0 min 0 min 0 W/m 6,4 km/h (2 Bft) 82,98 %
18.12.2018 00:40 4,8 C 4,4 C 3,3 C 96 % 1022,8 hPa 0,0 l/m 0 min 0 min 0 W/m 6,4 km/h (2 Bft) 82,98 %
18.12.2018 00:42 4,8 C 4,4 C 3,3 C 96 % 1022,7 hPa 0,0 l/m 0 min 0 min 0 W/m 6,4 km/h (2 Bft) 89,13 %
18.12.2018 00:44 4,8 C 4,4 C 3,3 C 96 % 1022,7 hPa 0,0 l/m 0 min 0 min 0 W/m 12,9 km/h (3 Bft) 97,87 %
18.12.2018 00:46 4,8 C 4,4 C 3,3 C 96 % 1022,8 hPa 0,0 l/m 0 min 0 min 0 W/m 9,7 km/h (2 Bft) 95,74 %
18.12.2018 00:48 4,8 C 4,4 C 3,3 C 96 % 1022,7 hPa 0,0 l/m 0 min 0 min 0 W/m 6,4 km/h (2 Bft) 97,87 %
18.12.2018 00:50 4,8 C 4,4 C 3,3 C 96 % 1022,7 hPa 0,0 l/m 0 min 0 min 0 W/m 3,2 km/h (1 Bft) 91,49 %
18.12.2018 00:52 4,8 C 4,4 C 3,3 C 96 % 1022,7 hPa 0,0 l/m 0 min 0 min 0 W/m 12,9 km/h (3 Bft) 97,83 %
18.12.2018 00:54 4,7 C 4,4 C 3,3 C 96 % 1022,7 hPa 0,0 l/m 0 min 0 min 0 W/m 6,4 km/h (2 Bft) 82,98 %
18.12.2018 00:56 4,7 C 4,4 C 3,3 C 96 % 1022,7 hPa 0,0 l/m 0 min 0 min 0 W/m 6,4 km/h (2 Bft) 76,60 %
18.12.2018 00:58 4,7 C 4,4 C 3,3 C 96 % 1022,8 hPa 0,0 l/m 0 min 0 min 0 W/m 6,4 km/h (2 Bft) 74,47 %
18.12.2018 01:00 4,7 C 4,4 C 3,3 C 96 % 1022,8 hPa 0,0 l/m 0 min 0 min 0 W/m 9,7 km/h (2 Bft) 74,47 %
18.12.2018 01:02 4,7 C 4,4 C 3,3 C 96 % 1022,7 hPa 0,0 l/m 0 min 0 min 0 W/m 6,4 km/h (2 Bft) 78,72 %
18.12.2018 01:04 4,7 C 4,4 C 3,3 C 96 % 1022,7 hPa 0,0 l/m 0 min 0 min 0 W/m 6,4 km/h (2 Bft) 70,21 %
18.12.2018 01:06 4,7 C 4,4 C 3,3 C 96 % 1022,7 hPa 0,0 l/m 0 min 0 min 0 W/m 9,7 km/h (2 Bft) 82,61 %
18.12.2018 01:08 4,7 C 4,4 C 3,3 C 96 % 1022,7 hPa 0,0 l/m 0 min 0 min 0 W/m 3,2 km/h (1 Bft) 82,98 %
18.12.2018 01:10 4,7 C 4,4 C 3,9 C 96 % 1022,7 hPa 0,0 l/m 0 min 0 min 0 W/m 6,4 km/h (2 Bft) 82,98 %
18.12.2018 01:12 4,7 C 4,4 C 3,9 C 96 % 1022,7 hPa 0,0 l/m 0 min 0 min 0 W/m 9,7 km/h (2 Bft) 100,00 %
18.12.2018 01:14 4,7 C 4,4 C 3,9 C 96 % 1022,6 hPa 0,0 l/m 0 min 0 min 0 W/m 6,4 km/h (2 Bft) 87,23 %
18.12.2018 01:16 4,8 C 4,4 C 3,9 C 96 % 1022,6 hPa 0,0 l/m 0 min 0 min 0 W/m 9,7 km/h (2 Bft) 80,43 %
18.12.2018 01:18 4,8 C 4,4 C 3,9 C 96 % 1022,7 hPa 0,0 l/m 0 min 0 min 0 W/m 6,4 km/h (2 Bft) 78,72 %
18.12.2018 01:20 4,8 C 4,4 C 3,9 C 96 % 1022,6 hPa 0,0 l/m 0 min 0 min 0 W/m 6,4 km/h (2 Bft) 82,98 %
18.12.2018 01:22 4,8 C 5,0 C 3,9 C 96 % 1022,6 hPa 0,0 l/m 0 min 0 min 0 W/m 12,9 km/h (3 Bft) 78,72 %
18.12.2018 01:24 4,8 C 5,0 C 3,9 C 97 % 1022,6 hPa 0,0 l/m 0 min 0 min 0 W/m 9,7 km/h (2 Bft) 91,49 %
18.12.2018 01:26 4,9 C 5,0 C 3,9 C 97 % 1022,7 hPa 0,0 l/m 0 min 0 min 0 W/m 6,4 km/h (2 Bft) 89,36 %
18.12.2018 01:28 4,9 C 5,0 C 3,9 C 97 % 1022,7 hPa 0,0 l/m 0 min 0 min 0 W/m 6,4 km/h (2 Bft) 89,13 %
18.12.2018 01:30 4,9 C 5,0 C 3,9 C 96 % 1022,7 hPa 0,0 l/m 0 min 0 min 0 W/m 6,4 km/h (2 Bft) 89,36 %
18.12.2018 01:32 4,9 C 5,0 C 3,9 C 96 % 1022,7 hPa 0,0 l/m 0 min 0 min 0 W/m 3,2 km/h (1 Bft) 87,23 %
18.12.2018 01:34 4,9 C 5,0 C 3,9 C 96 % 1022,7 hPa 0,0 l/m 0 min 0 min 0 W/m 6,4 km/h (2 Bft) 85,11 %
18.12.2018 01:36 5,0 C 5,0 C 3,9 C 97 % 1022,7 hPa 0,0 l/m 0 min 0 min 0 W/m 3,2 km/h (1 Bft) 91,49 %
18.12.2018 01:38 5,0 C 5,0 C 3,9 C 97 % 1022,7 hPa 0,0 l/m 0 min 0 min 0 W/m 6,4 km/h (2 Bft) 87,23 %
18.12.2018 01:40 5,0 C 5,0 C 3,9 C 97 % 1022,7 hPa 0,0 l/m 0 min 0 min 0 W/m 12,9 km/h (3 Bft) 86,96 %
18.12.2018 01:42 5,1 C 5,0 C 3,9 C 97 % 1022,7 hPa 0,0 l/m 0 min 0 min 0 W/m 6,4 km/h (2 Bft) 85,11 %
18.12.2018 01:44 5,1 C 5,0 C 3,9 C 97 % 1022,7 hPa 0,0 l/m 0 min 0 min 0 W/m 9,7 km/h (2 Bft) 87,23 %
18.12.2018 01:46 5,1 C 5,0 C 3,9 C 97 % 1022,6 hPa 0,0 l/m 0 min 0 min 0 W/m 12,9 km/h (3 Bft) 91,49 %
18.12.2018 01:48 5,1 C 5,0 C 3,9 C 97 % 1022,6 hPa 0,0 l/m 0 min 0 min 0 W/m 6,4 km/h (2 Bft) 89,36 %
18.12.2018 01:50 5,1 C 5,0 C 3,9 C 97 % 1022,5 hPa 0,0 l/m 0 min 0 min 0 W/m 6,4 km/h (2 Bft) 89,36 %
18.12.2018 01:52 5,1 C 5,0 C 3,9 C 97 % 1022,5 hPa 0,0 l/m 0 min 0 min 0 W/m 6,4 km/h (2 Bft) 91,30 %
18.12.2018 01:54 5,1 C 5,0 C 3,9 C 97 % 1022,5 hPa 0,0 l/m 0 min 0 min 0 W/m 3,2 km/h (1 Bft) 87,23 %
18.12.2018 01:56 5,1 C 5,0 C 4,4 C 97 % 1022,5 hPa 0,0 l/m 0 min 0 min 0 W/m 12,9 km/h (3 Bft) 93,62 %
18.12.2018 01:58 5,1 C 5,0 C 4,4 C 97 % 1022,4 hPa 0,0 l/m 0 min 0 min 0 W/m 6,4 km/h (2 Bft) 91,49 %
18.12.2018 02:00 5,1 C 5,0 C 4,4 C 97 % 1022,4 hPa 0,0 l/m 0 min 0 min 0 W/m 9,7 km/h (2 Bft) 82,98 %
18.12.2018 02:02 5,1 C 5,0 C 4,4 C 97 % 1022,4 hPa 0,0 l/m 0 min 0 min 0 W/m 12,9 km/h (3 Bft) 89,13 %
18.12.2018 02:04 5,2 C 5,0 C 4,4 C 97 % 1022,3 hPa 0,0 l/m 0 min 0 min 0 W/m 9,7 km/h (2 Bft) 85,11 %
18.12.2018 02:06 5,2 C 5,0 C 4,4 C 97 % 1022,3 hPa 0,0 l/m 0 min 0 min 0 W/m 9,7 km/h (2 Bft) 89,36 %
18.12.2018 02:08 5,2 C 5,0 C 4,4 C 97 % 1022,4 hPa 0,0 l/m 0 min 0 min 0 W/m 12,9 km/h (3 Bft) 95,74 %
18.12.2018 02:10 5,2 C 5,0 C 4,4 C 97 % 1022,4 hPa 0,0 l/m 0 min 0 min 0 W/m 9,7 km/h (2 Bft) 93,62 %
18.12.2018 02:12 5,2 C 5,0 C 4,4 C 97 % 1022,4 hPa 0,0 l/m 0 min 0 min 0 W/m 12,9 km/h (3 Bft) 95,74 %
18.12.2018 02:14 5,2 C 5,0 C 4,4 C 97 % 1022,3 hPa 0,0 l/m 0 min 0 min 0 W/m 9,7 km/h (2 Bft) 91,30 %
18.12.2018 02:16 5,2 C 5,0 C 4,4 C 97 % 1022,3 hPa 0,0 l/m 0 min 0 min 0 W/m 12,9 km/h (3 Bft) 91,49 %
18.12.2018 02:18 5,2 C 5,0 C 4,4 C 97 % 1022,3 hPa 0,0 l/m 0 min 0 min 0 W/m 9,7 km/h (2 Bft) 91,49 %
18.12.2018 02:20 5,2 C 5,0 C 4,4 C 97 % 1022,3 hPa 0,0 l/m 0 min 0 min 0 W/m 9,7 km/h (2 Bft) 93,62 %
18.12.2018 02:22 5,2 C 5,0 C 4,4 C 97 % 1022,2 hPa 0,0 l/m 0 min 0 min 0 W/m 12,9 km/h (3 Bft) 95,74 %
18.12.2018 02:24 5,2 C 5,0 C 4,4 C 97 % 1022,4 hPa 0,0 l/m 0 min 0 min 0 W/m 6,4 km/h (2 Bft) 91,49 %
18.12.2018 02:26 5,2 C 5,0 C 3,9 C 97 % 1022,3 hPa 0,0 l/m 0 min 0 min 0 W/m 6,4 km/h (2 Bft) 95,65 %
18.12.2018 02:28 5,2 C 5,0 C 3,9 C 97 % 1022,4 hPa 0,0 l/m 0 min 0 min 0 W/m 9,7 km/h (2 Bft) 91,49 %
18.12.2018 02:30 5,2 C 5,0 C 3,9 C 97 % 1022,3 hPa 0,0 l/m 0 min 0 min 0 W/m 6,4 km/h (2 Bft) 95,74 %
18.12.2018 02:32 5,2 C 4,4 C 3,9 C 97 % 1022,2 hPa 0,0 l/m 0 min 0 min 0 W/m 9,7 km/h (2 Bft) 95,74 %
18.12.2018 02:34 5,2 C 4,4 C 3,9 C 97 % 1022,2 hPa 0,0 l/m 0 min 0 min 0 W/m 6,4 km/h (2 Bft) 89,36 %
18.12.2018 02:36 5,2 C 4,4 C 3,9 C 96 % 1022,2 hPa 0,0 l/m 0 min 0 min 0 W/m 12,9 km/h (3 Bft) 89,36 %
18.12.2018 02:38 5,1 C 4,4 C 3,9 C 96 % 1022,3 hPa 0,0 l/m 0 min 0 min 0 W/m 6,4 km/h (2 Bft) 82,61 %
18.12.2018 02:40 5,1 C 4,4 C 3,9 C 96 % 1022,3 hPa 0,0 l/m 0 min 0 min 0 W/m 9,7 km/h (2 Bft) 87,23 %
18.12.2018 02:42 5,1 C 4,4 C 3,3 C 96 % 1022,3 hPa 0,0 l/m 0 min 0 min 0 W/m 6,4 km/h (2 Bft) 85,11 %
18.12.2018 02:44 5,1 C 4,4 C 3,3 C 96 % 1022,4 hPa 0,0 l/m 0 min 0 min 0 W/m 6,4 km/h (2 Bft) 97,87 %
18.12.2018 02:46 5,0 C 4,4 C 3,3 C 96 % 1022,4 hPa 0,0 l/m 0 min 0 min 0 W/m 3,2 km/h (1 Bft) 95,74 %
18.12.2018 02:48 5,0 C 4,4 C 3,3 C 96 % 1022,4 hPa 0,0 l/m 0 min 0 min 0 W/m 6,4 km/h (2 Bft) 85,11 %
18.12.2018 02:50 5,0 C 3,9 C 3,3 C 96 % 1022,4 hPa 0,0 l/m 0 min 0 min 0 W/m 3,2 km/h (1 Bft) 89,13 %
18.12.2018 02:52 4,9 C 3,9 C 2,8 C 96 % 1022,5 hPa 0,0 l/m 0 min 0 min 0 W/m 3,2 km/h (1 Bft) 87,23 %
18.12.2018 02:54 4,9 C 3,9 C 2,8 C 96 % 1022,4 hPa 0,0 l/m 0 min 0 min 0 W/m 6,4 km/h (2 Bft) 89,36 %
18.12.2018 02:56 4,9 C 3,9 C 2,8 C 96 % 1022,4 hPa 0,0 l/m 0 min 0 min 0 W/m 3,2 km/h (1 Bft) 82,98 %
18.12.2018 02:58 4,8 C 3,3 C 2,8 C 96 % 1022,6 hPa 0,0 l/m 0 min 0 min 0 W/m 6,4 km/h (2 Bft) 91,49 %
18.12.2018 03:00 4,8 C 3,3 C 2,8 C 96 % 1022,6 hPa 0,0 l/m 0 min 0 min 0 W/m 3,2 km/h (1 Bft) 89,36 %
18.12.2018 03:02 4,8 C 3,3 C 2,8 C 96 % 1022,5 hPa 0,0 l/m 0 min 0 min 0 W/m 3,2 km/h (1 Bft) 86,96 %
18.12.2018 03:04 4,7 C 3,3 C 2,8 C 96 % 1022,5 hPa 0,0 l/m 0 min 0 min 0 W/m 3,2 km/h (1 Bft) 80,85 %
18.12.2018 03:06 4,7 C 3,3 C 2,8 C 96 % 1022,5 hPa 0,0 l/m 0 min 0 min 0 W/m 3,2 km/h (1 Bft) 78,72 %
18.12.2018 03:08 4,6 C 3,3 C 2,2 C 96 % 1022,5 hPa 0,0 l/m 0 min 0 min 0 W/m 0,0 km/h (0 Bft) 95,74 %
18.12.2018 03:10 4,6 C 3,3 C 2,2 C 96 % 1022,5 hPa 0,0 l/m 0 min 0 min 0 W/m 0,0 km/h (0 Bft) 95,74 %
18.12.2018 03:12 4,5 C 2,8 C 2,2 C 96 % 1022,5 hPa 0,0 l/m 0 min 0 min 0 W/m 0,0 km/h (0 Bft) 97,83 %
18.12.2018 03:14 4,4 C 2,8 C 2,2 C 96 % 1022,5 hPa 0,0 l/m 0 min 0 min 0 W/m 0,0 km/h (0 Bft) 95,74 %
18.12.2018 03:16 4,4 C 2,8 C 2,2 C 95 % 1022,6 hPa 0,0 l/m 0 min 0 min 0 W/m 3,2 km/h (1 Bft) 95,74 %
18.12.2018 03:18 4,3 C 2,8 C 2,2 C 95 % 1022,5 hPa 0,0 l/m 0 min 0 min 0 W/m 3,2 km/h (1 Bft) 87,23 %
18.12.2018 03:20 4,3 C 2,8 C 2,2 C 95 % 1022,5 hPa 0,0 l/m 0 min 0 min 0 W/m 6,4 km/h (2 Bft) 87,23 %
18.12.2018 03:22 4,2 C 2,8 C 2,2 C 95 % 1022,5 hPa 0,0 l/m 0 min 0 min 0 W/m 6,4 km/h (2 Bft) 87,23 %
18.12.2018 03:24 4,2 C 2,8 C 2,2 C 95 % 1022,5 hPa 0,0 l/m 0 min 0 min 0 W/m 6,4 km/h (2 Bft) 97,83 %
18.12.2018 03:26 4,1 C 2,8 C 2,2 C 95 % 1022,6 hPa 0,0 l/m 0 min 0 min 0 W/m 6,4 km/h (2 Bft) 95,74 %
18.12.2018 03:28 4,1 C 2,8 C 2,2 C 95 % 1022,7 hPa 0,0 l/m 0 min 0 min 0 W/m 3,2 km/h (1 Bft) 87,23 %
18.12.2018 03:30 4,1 C 2,8 C 2,2 C 95 % 1022,7 hPa 0,0 l/m 0 min 0 min 0 W/m 3,2 km/h (1 Bft) 91,49 %
18.12.2018 03:32 4,0 C 2,8 C 2,2 C 95 % 1022,7 hPa 0,0 l/m 0 min 0 min 0 W/m 0,0 km/h (0 Bft) 87,23 %
18.12.2018 03:34 4,0 C 2,8 C 2,2 C 95 % 1022,7 hPa 0,0 l/m 0 min 0 min 0 W/m 0,0 km/h (0 Bft) 89,36 %
18.12.2018 03:36 3,9 C 2,8 C 2,2 C 95 % 1022,6 hPa 0,0 l/m 0 min